CW6805 Weather Reports


time (UTC)temp
C
wind
direction
speed
KPH
gust
KPH
rain 1hr
cm
rain 24hr
cm
rain mn
cm
humidity
%
barometer
mb
20260504141049 19 218 1.6 8.0 0.00 0.00 0.00 51 997.6
20260504081519 7 0 0.0 0.0 0.00 0.00 0.00 88 997.8
20260504080507 7 0 0.0 0.0 0.00 0.00 0.00 87 997.8
20260504070346 10 0 0.0 0.0 0.00 0.00 0.00 79 999.1
20260504050229 13 185 0.0 3.2 0.00 0.00 0.00 70 999.9
20260504045221 14 185 0.0 4.8 0.00 0.00 0.00 70 999.9
20260504044219 14 178 0.0 4.8 0.00 0.00 0.00 70 1000.0
20260504043217 13 177 1.6 8.0 0.00 0.00 0.00 70 1000.1
20260504042212 13 196 0.0 0.0 0.00 0.00 0.00 71 1000.1
20260504041209 13 196 0.0 0.0 0.00 0.00 0.00 70 1000.1
20260504040205 14 196 0.0 0.0 0.00 0.00 0.00 69 1000.1
20260504035205 14 0 0.0 0.0 0.00 0.00 0.00 69 1000.1
20260504034205 14 194 0.0 1.6 0.00 0.00 0.00 68 1000.2
20260504033140 14 194 0.0 8.0 0.00 0.00 0.00 69 1000.2
20260504032132 14 184 0.0 1.6 0.00 0.00 0.00 69 1000.2
20260504031121 14 0 0.0 1.6 0.00 0.00 0.00 69 1000.3
20260504030109 14 184 0.0 3.2 0.00 0.00 0.00 68 1000.4
20260504025110 14 184 0.0 1.6 0.00 0.00 0.00 67 1000.4
20260504024048 15 184 0.0 1.6 0.00 0.00 0.00 66 1000.4
20260504023535 15 184 0.0 1.6 0.00 0.00 0.00 65 1000.3
20260504022046 15 184 0.0 1.6 0.00 0.00 0.00 65 1000.3
20260504021036 15 184 0.0 6.4 0.00 0.00 0.00 66 1000.3
20260504020014 14 187 0.0 1.6 0.00 0.00 0.00 67 1000.1
20260504014952 14 187 0.0 0.0 0.00 0.00 0.00 67 1000.1
20260504014419 15 0 0.0 0.0 0.00 0.00 0.00 66 1000.1
20260504012917 15 0 0.0 0.0 0.00 0.00 0.00 64 1000.0
20260504012345 16 187 0.0 0.0 0.00 0.00 0.00 61 1000.1
20260504010900 17 187 0.0 0.0 0.00 0.00 0.00 59 999.9
20260504005858 17 188 0.0 0.0 0.00 0.00 0.00 57 999.7
20260504005344 18 188 0.0 3.2 0.00 0.00 0.00 56 999.8
20260504003835 18 0 0.0 4.8 0.00 0.00 0.00 54 999.8
20260504002827 19 187 0.0 3.2 0.00 0.00 0.00 53 1000.1
20260504001824 19 175 1.6 11.3 0.00 0.00 0.00 51 1000.1
20260504000806 19 204 1.6 8.0 0.00 0.00 0.00 51 999.9
20260503235754 20 222 1.6 6.4 0.00 0.00 0.00 50 1000.0
20260503234742 20 199 1.6 4.8 0.00 0.00 0.00 51 1000.0
20260503234202 20 221 1.6 9.7 0.00 0.00 0.00 50 1000.0
20260503232722 20 204 1.6 9.7 0.00 0.00 0.00 51 1000.3
20260503232204 20 239 3.2 16.1 0.00 0.00 0.00 50 1000.4
20260503230723 20 247 1.6 12.9 0.00 0.00 0.00 49 1000.4
20260503225722 20 244 3.2 8.0 0.00 0.00 0.00 48 1000.5
20260503225216 20 178 3.2 8.0 0.00 0.00 0.00 50 1000.5
20260503223721 20 205 4.8 14.5 0.00 0.00 0.00 47 1000.6
20260503222723 20 221 3.2 11.3 0.00 0.00 0.00 49 1000.5
20260503221720 20 193 3.2 17.7 0.00 0.00 0.00 48 1000.6
20260503220720 20 193 3.2 14.5 0.00 0.00 0.00 49 1000.5
20260503215708 20 248 4.8 19.3 0.00 0.00 0.00 49 1000.8
20260503214656 19 196 4.8 20.9 0.00 0.00 0.00 49 1001.0
20260503213645 19 238 6.4 17.7 0.00 0.00 0.00 49 1001.0
20260503213122 19 259 6.4 22.5 0.00 0.00 0.00 49 1001.1
20260503211640 19 236 6.4 17.7 0.00 0.00 0.00 49 1001.4
20260503210640 19 256 6.4 22.5 0.00 0.00 0.00 50 1001.4
20260503205639 18 250 6.4 20.9 0.00 0.00 0.00 50 1001.8
20260503204638 18 236 6.4 20.9 0.00 0.00 0.00 50 1002.2
20260503203639 18 150 6.4 17.7 0.00 0.00 0.00 49 1002.2
20260503202635 18 215 6.4 16.1 0.00 0.00 0.00 48 1002.3
20260503201638 18 229 6.4 19.3 0.00 0.00 0.00 49 1002.6
20260503200634 18 281 6.4 27.4 0.00 0.00 0.00 52 1002.6
20260503200548 17 182 6.4 16.1 0.00 0.00 0.00 55 1003.1
20260503194632 17 288 8.0 20.9 0.00 0.00 0.00 57 1003.5
20260503193629 17 268 6.4 22.5 0.00 0.00 0.00 56 1003.5
20260503192627 17 196 4.8 19.3 0.00 0.00 0.00 56 1003.5
20260503192115 17 211 4.8 19.3 0.00 0.00 0.00 56 1003.5
20260503190627 17 307 6.4 22.5 0.00 0.00 0.00 55 1003.5
20260503185626 17 57 6.4 20.9 0.00 0.00 0.00 57 1003.5
20260503184626 16 184 4.8 19.3 0.00 0.00 0.00 54 1003.6
20260503183625 16 192 8.0 25.7 0.00 0.00 0.00 54 1003.5
20260503182624 16 187 6.4 20.9 0.00 0.00 0.00 58 1003.7
20260503181623 16 139 6.4 20.9 0.00 0.00 0.00 58 1004.2
20260503180628 16 211 9.7 25.7 0.00 0.00 0.00 56 1004.1
20260503175615 16 191 6.4 19.3 0.00 0.00 0.00 60 1004.4
20260503175050 15 86 8.0 25.7 0.00 0.00 0.00 60 1004.7
20260503173608 15 113 8.0 25.7 0.00 0.00 0.00 60 1004.7
20260503172607 15 166 6.4 19.3 0.00 0.00 0.00 65 1005.1
20260503172042 14 271 8.0 29.0 0.00 0.00 0.00 65 1005.7
20260503170607 14 211 8.0 27.4 0.00 0.00 0.00 68 1005.6